Hawk 12B

operational
NORAD ID: 64622 Int'l Des: 2025-138 Owner: HE360 Country: US
LEOCIRCULARRETROGRADESSO

About Hawk 12B

Description loading...

Live Position

Loading 3D Globe...

Upcoming Passes

Altitude History

Altitude vs Time

uPlot chart will show altitude changes over time

Two-Line Element Set

1 64622U 25138B 25314.93225510 .00005881 00000-0 30989-3 0 9995
2 64622 97.4466 316.7711 0013775 169.3119 190.8409 15.15891597 20775
Epoch: Nov 10, 2025 • Age: 15 hours

Current Status

Altitude 516.5 km
Velocity 7.61 km/s
Sub-Earth Point -16.15°S, 118.12°W
Launch Date Jun 26, 2025
Age 0.3 years
Type other

Technical Details

Classification Payload
Mass 31.00 kg
Dry Mass 30.00 kg
Total Mass 31.00 kg
Length 0.45 m
Diameter 0.30 m
Span 1.00 m
Shape Box + 2 pan
Manufacturer UTIAS
Bus Type Hawk2G
Phase Status In Orbit
Owner/State HE360/US

Large Constellations

Loading constellations...